Volver al catálogo

STARLINK-5453

ActivoComunicacionesVLEO
NORAD 54773·PAYLOAD·🇺🇸 United States

Lanzado Dec 17, 2022 desde Cape Canaveral Space Force Station

Loading…

Próximos Pases (próximas 24 horas)

TLE

ActualizadoSource: CelesTrak SupGP

Época: Sep 15, 2026, 03:08 UTC

1 54773C 22175R   26258.13104167 -.00026626  00000+0 -78664-3 0  2584
2 54773  53.1581 262.8847 0001294  81.8366 263.8112 15.34405758    12

Sigue STARLINK-5453 en tiempo real con AllMySat

Download on the App Store